Weather History for West Palm Beach, FL

Change the Weather History Date:

Friday, October 19, 2012

  Actual Average Record
Temperature  
Mean Temperature 81 °F 78 °F  
Max Temperature 87 °F 85 °F 92 °F (1989)
Min Temperature 74 °F 71 °F 52 °F (1927)
Degree Days  
Heating Degree Days 0 0  
Month to date heating degree days 0 0  
Since 1 July heating degree days 0 0  
Cooling Degree Days 16 13  
Month to date cooling degree days 321 273  
Year to date cooling degree days 3738 3481  
Growing Degree Days 30 (Base 50)    
Moisture  
Dew Point 73 °F    
Average Humidity 83    
Maximum Humidity 100    
Minimum Humidity 65    
Precipitation  
Precipitation 0.13 in 0.14 in 7.36 in (1924)
Month to date precipitation 7.51 3.33  
Year to date precipitation 74.91 52.40  
Snow  
Snow 0.00 in - - ()
Month to date snowfall 0.0  
Since 1 July snowfall 0.0  
Since 1 September snowfall 0.0  
Snow Depth 0.00 in    
Sea Level Pressure  
Sea Level Pressure 29.86 in    
Wind  
Wind Speed 6 mph (SSE)    
Max Wind Speed 16 mph    
Max Gust Speed 20 mph    
Visibility 10 miles    
Events Rain    
T = Trace of Precipitation, MM = Missing Value Source: NWS Daily Summary

Daily Weather History Graph

Daily Weather History Graph

Search for Another Location

Airport:

Trip Planner

Search our weather history database for the weather conditions in past years. The results will help you decide how hot, cold, wet, or windy it might be!

Date:

Astronomy

Oct. 19, 2012 Rise Set
Actual Time 7:22 AM EDT 6:47 PM EDT
Civil Twilight 6:58 AM EDT 7:11 PM EDT
Nautical Twilight 6:31 AM EDT 7:38 PM EDT
Astronomical Twilight 6:04 AM EDT 8:05 PM EDT
Moon 11:45 AM EDT (10/19) 10:42 PM EDT (10/19)
Length of Visible Light 12h 12m
Length of Day
11h 25m
Waxing Crescent, 23% of the Moon is Illuminated
Oct 19
Waxing Crescent
Oct 21
First Quarter
Oct 29
Full
Nov 6
Last Quarter
Nov 13
New

Hourly Weather History & Observations

Time (EDT) Temp. Heat Index Dew Point Humidity Pressure Visibility Wind Dir Wind Speed Gust Speed Precip Events Conditions
12:53 AM 77.0 °F - 75.0 °F 94% 29.86 in 10.0 mi SW 4.6 mph - 0.01 in   Scattered Clouds
1:53 AM 78.1 °F - 73.9 °F 87% 29.86 in 10.0 mi SW 4.6 mph - N/A   Scattered Clouds
2:53 AM 77.0 °F - 75.0 °F 94% 29.84 in 10.0 mi WSW 4.6 mph - N/A   Scattered Clouds
3:53 AM 75.9 °F - 73.9 °F 94% 29.83 in 10.0 mi West 4.6 mph - N/A   Partly Cloudy
4:53 AM 75.0 °F - 73.9 °F 96% 29.83 in 10.0 mi SW 3.5 mph - N/A   Scattered Clouds
5:53 AM 75.9 °F - 73.9 °F 94% 29.84 in 10.0 mi West 3.5 mph - N/A   Scattered Clouds
6:53 AM 73.9 °F - 73.0 °F 97% 29.86 in 10.0 mi Calm Calm - N/A   Scattered Clouds
7:53 AM 75.0 °F - 73.9 °F 96% 29.87 in 10.0 mi Calm Calm - N/A   Mostly Cloudy
8:53 AM 79.0 °F - 75.9 °F 90% 29.88 in 10.0 mi NNW 3.5 mph - N/A   Scattered Clouds
9:39 AM 80.6 °F 86.2 °F 75.2 °F 84% 29.90 in 10.0 mi North 3.5 mph - N/A   Mostly Cloudy
9:48 AM 80.6 °F 86.2 °F 75.2 °F 84% 29.90 in 10.0 mi Calm Calm - N/A   Mostly Cloudy
9:53 AM 81.0 °F 86.7 °F 75.0 °F 82% 29.90 in 10.0 mi Calm Calm - N/A   Mostly Cloudy
10:53 AM 82.0 °F 87.9 °F 73.9 °F 76% 29.89 in 10.0 mi Variable 3.5 mph - N/A   Mostly Cloudy
11:53 AM 84.9 °F 91.4 °F 73.0 °F 67% 29.88 in 10.0 mi West 5.8 mph - N/A   Mostly Cloudy
12:53 PM 86.0 °F 93.0 °F 73.0 °F 65% 29.87 in 10.0 mi SSE 5.8 mph - N/A   Mostly Cloudy
1:34 PM 84.2 °F 92.3 °F 75.2 °F 74% 29.85 in 10.0 mi SE 5.8 mph - 0.00 in   Mostly Cloudy
1:53 PM 84.9 °F 93.3 °F 75.0 °F 72% 29.84 in 10.0 mi SSE 6.9 mph - 0.00 in   Mostly Cloudy
2:30 PM 87.8 °F 95.6 °F 73.4 °F 62% 29.82 in 10.0 mi SE 8.1 mph - N/A   Mostly Cloudy
2:53 PM 84.9 °F 93.3 °F 75.0 °F 72% 29.82 in 10.0 mi SE 8.1 mph - N/A   Mostly Cloudy
3:53 PM 86.0 °F 95.1 °F 75.0 °F 70% 29.81 in 10.0 mi SSE 9.2 mph - N/A   Mostly Cloudy
4:53 PM 86.0 °F 93.8 °F 73.9 °F 67% 29.81 in 10.0 mi SE 15.0 mph - N/A   Mostly Cloudy
5:53 PM 82.0 °F 87.4 °F 73.0 °F 74% 29.80 in 10.0 mi SSE 13.8 mph - N/A   Mostly Cloudy
6:53 PM 82.0 °F 87.4 °F 73.0 °F 74% 29.82 in 10.0 mi SSE 10.4 mph - N/A   Mostly Cloudy
7:53 PM 81.0 °F 85.2 °F 72.0 °F 74% 29.84 in 10.0 mi SSW 6.9 mph - N/A   Mostly Cloudy
8:53 PM 79.0 °F - 71.1 °F 77% 29.88 in 10.0 mi NNE 9.2 mph 16.1 mph N/A   Mostly Cloudy
9:01 PM 78.8 °F - 69.8 °F 74% 29.89 in 10.0 mi North 6.9 mph - N/A   Overcast
9:22 PM 75.2 °F - 69.8 °F 83% 29.88 in 2.0 mi North 13.8 mph - 0.05 in Rain Heavy Rain
9:30 PM 75.2 °F - 69.8 °F 83% 29.89 in 8.0 mi NNE 12.7 mph - 0.13 in Rain Light Rain
9:53 PM 73.9 °F - 69.1 °F 85% 29.89 in 10.0 mi NNE 8.1 mph - 0.13 in   Overcast
10:19 PM 75.2 °F - 69.8 °F 83% 29.89 in 10.0 mi ENE 5.8 mph - N/A   Mostly Cloudy
10:53 PM 75.0 °F - 72.0 °F 90% 29.89 in 10.0 mi East 4.6 mph - N/A   Mostly Cloudy
11:53 PM 75.9 °F - 73.0 °F 91% 29.88 in 10.0 mi SSE 5.8 mph - N/A   Scattered Clouds